| time (UTC) | temp C | wind direction | speed KPH | gust KPH | rain 1hr cm | rain 24hr cm | rain mn cm | humidity % | barometer mb |
| 20260507051601 | 13 | 0 | 0.0 | 0.0 | 0.00 | 0.00 | 0.00 | 84 | 1025.1 |
| 20260507050100 | 13 | 0 | 0.0 | 0.0 | 0.00 | 0.00 | 0.00 | 84 | 1025.1 |
| 20260507044558 | 13 | 0 | 1.6 | 6.4 | 0.00 | 0.00 | 0.00 | 82 | 1025.2 |
| 20260507043102 | 13 | 0 | 0.0 | 0.0 | 0.00 | 0.00 | 0.00 | 82 | 1025.2 |
| 20260507041557 | 13 | 0 | 0.0 | 1.6 | 0.00 | 0.00 | 0.00 | 81 | 1025.0 |
| 20260507040059 | 13 | 0 | 0.0 | 0.0 | 0.00 | 0.00 | 0.00 | 82 | 1024.9 |
| 20260507034558 | 14 | 0 | 0.0 | 6.4 | 0.00 | 0.00 | 0.00 | 80 | 1024.6 |
| 20260507033058 | 14 | 0 | 3.2 | 6.4 | 0.00 | 0.00 | 0.00 | 80 | 1024.4 |
| 20260507031601 | 14 | 274 | 1.6 | 8.0 | 0.00 | 0.00 | 0.00 | 80 | 1024.2 |
| 20260507030101 | 15 | 0 | 1.6 | 6.4 | 0.00 | 0.00 | 0.00 | 81 | 1024.1 |
| 20260507024632 | 15 | 337 | 0.0 | 4.8 | 0.00 | 0.00 | 0.00 | 79 | 1024.0 |
| 20260507023101 | 15 | 301 | 1.6 | 6.4 | 0.00 | 0.00 | 0.00 | 79 | 1023.8 |
| 20260507021601 | 16 | 0 | 0.0 | 4.8 | 0.00 | 0.00 | 0.00 | 80 | 1023.7 |
| 20260507020111 | 16 | 0 | 0.0 | 1.6 | 0.00 | 0.00 | 0.00 | 76 | 1023.9 |
| 20260507014608 | 16 | 0 | 0.0 | 8.0 | 0.00 | 0.00 | 0.00 | 77 | 1023.9 |
| 20260507013101 | 17 | 0 | 0.0 | 4.8 | 0.00 | 0.00 | 0.00 | 74 | 1023.8 |
| 20260507011604 | 17 | 238 | 0.0 | 6.4 | 0.00 | 0.00 | 0.00 | 76 | 1024.0 |
| 20260507010059 | 18 | 36 | 3.2 | 11.3 | 0.00 | 0.00 | 0.00 | 71 | 1023.9 |
| 20260507004600 | 18 | 0 | 1.6 | 11.3 | 0.00 | 0.00 | 0.00 | 74 | 1023.7 |
| 20260507003101 | 18 | 30 | 1.6 | 12.9 | 0.00 | 0.00 | 0.00 | 71 | 1023.7 |
| 20260507001601 | 19 | 0 | 3.2 | 14.5 | 0.00 | 0.00 | 0.00 | 69 | 1023.7 |
| 20260507000058 | 19 | 68 | 0.0 | 6.4 | 0.00 | 0.00 | 0.00 | 73 | 1023.7 |
| 20260506234609 | 18 | 0 | 0.0 | 3.2 | 0.00 | 0.00 | 0.00 | 77 | 1023.7 |
| 20260506233101 | 18 | 0 | 0.0 | 3.2 | 0.00 | 0.00 | 0.00 | 75 | 1023.9 |
| 20260506231602 | 18 | 0 | 1.6 | 6.4 | 0.00 | 0.00 | 0.00 | 75 | 1023.8 |
| 20260506224601 | 18 | 0 | 1.6 | 6.4 | 0.00 | 0.00 | 0.00 | 75 | 1024.0 |
| 20260506223101 | 19 | 167 | 0.0 | 4.8 | 0.00 | 0.00 | 0.00 | 75 | 1024.1 |
| 20260506221601 | 18 | 120 | 0.0 | 4.8 | 0.00 | 0.00 | 0.00 | 77 | 1024.1 |
| 20260506220059 | 18 | 140 | 1.6 | 6.4 | 0.00 | 0.00 | 0.00 | 74 | 1024.1 |
| 20260506214558 | 18 | 111 | 1.6 | 6.4 | 0.00 | 0.00 | 0.00 | 77 | 1024.0 |
| 20260506213131 | 18 | 94 | 0.0 | 4.8 | 0.00 | 0.00 | 0.00 | 79 | 1023.9 |
| 20260506211620 | 18 | 89 | 3.2 | 17.7 | 0.00 | 0.00 | 0.00 | 77 | 1024.1 |
| 20260506210103 | 18 | 75 | 3.2 | 8.0 | 0.00 | 0.00 | 0.00 | 79 | 1024.2 |
| 20260506204600 | 18 | 96 | 1.6 | 6.4 | 0.00 | 0.00 | 0.00 | 79 | 1024.3 |
| 20260506203103 | 18 | 103 | 3.2 | 8.0 | 0.00 | 0.00 | 0.00 | 77 | 1024.4 |
| 20260506201609 | 18 | 89 | 3.2 | 9.7 | 0.00 | 0.00 | 0.00 | 79 | 1024.2 |
| 20260506194619 | 17 | 65 | 3.2 | 6.4 | 0.00 | 0.00 | 0.00 | 83 | 1024.5 |
| 20260506193058 | 16 | 126 | 3.2 | 6.4 | 0.00 | 0.00 | 0.00 | 83 | 1024.4 |
| 20260506191600 | 17 | 78 | 3.2 | 9.7 | 0.00 | 0.00 | 0.00 | 80 | 1024.5 |
| 20260506190103 | 17 | 66 | 3.2 | 9.7 | 0.00 | 0.00 | 0.00 | 81 | 1024.6 |
| 20260506184609 | 17 | 76 | 3.2 | 11.3 | 0.00 | 0.00 | 0.00 | 81 | 1024.4 |
| 20260506183105 | 16 | 75 | 3.2 | 9.7 | 0.00 | 0.00 | 0.00 | 84 | 1024.5 |
| 20260506181601 | 16 | 53 | 3.2 | 14.5 | 0.00 | 0.00 | 0.00 | 86 | 1024.3 |
| 20260506174601 | 15 | 77 | 1.6 | 4.8 | 0.00 | 0.00 | 0.00 | 88 | 1024.7 |
| 20260506173109 | 14 | 64 | 1.6 | 4.8 | 0.00 | 0.00 | 0.00 | 90 | 1024.6 |
| 20260506171559 | 14 | 76 | 0.0 | 4.8 | 0.00 | 0.00 | 0.00 | 91 | 1024.3 |
| 20260506170114 | 13 | 0 | 3.2 | 4.8 | 0.00 | 0.00 | 0.00 | 91 | 1024.3 |
| 20260506164602 | 13 | 84 | 1.6 | 6.4 | 0.00 | 0.00 | 0.00 | 93 | 1024.6 |
| 20260506163112 | 13 | 74 | 0.0 | 3.2 | 0.00 | 0.00 | 0.00 | 93 | 1024.6 |
| 20260506161600 | 13 | 0 | 0.0 | 3.2 | 0.00 | 0.00 | 0.00 | 94 | 1024.6 |
| 20260506160109 | 12 | 0 | 0.0 | 6.4 | 0.00 | 0.00 | 0.00 | 94 | 1024.5 |
| 20260506154604 | 12 | 0 | 0.0 | 0.0 | 0.00 | 0.00 | 0.00 | 94 | 1024.4 |
| 20260506153057 | 12 | 0 | 0.0 | 0.0 | 0.00 | 0.00 | 0.00 | 95 | 1024.1 |
| 20260506151607 | 12 | 0 | 1.6 | 6.4 | 0.00 | 0.00 | 0.00 | 95 | 1024.1 |
| 20260506150101 | 12 | 0 | 0.0 | 0.0 | 0.00 | 0.00 | 0.00 | 96 | 1024.4 |
| 20260506144608 | 12 | 0 | 0.0 | 1.6 | 0.00 | 0.00 | 0.00 | 96 | 1024.4 |
| 20260506143109 | 12 | 0 | 0.0 | 0.0 | 0.00 | 0.00 | 0.00 | 96 | 1024.4 |
| 20260506141559 | 11 | 0 | 0.0 | 0.0 | 0.00 | 0.00 | 0.00 | 97 | 1024.3 |
| 20260506140106 | 11 | 0 | 0.0 | 0.0 | 0.00 | 0.00 | 0.00 | 97 | 1023.7 |
| 20260506134600 | 11 | 0 | 0.0 | 0.0 | 0.00 | 0.00 | 0.00 | 97 | 1023.6 |
| 20260506133103 | 11 | 0 | 0.0 | 0.0 | 0.00 | 0.00 | 0.00 | 97 | 1023.6 |
| 20260506131558 | 11 | 0 | 0.0 | 0.0 | 0.00 | 0.00 | 0.00 | 97 | 1023.5 |
| 20260506124602 | 11 | 0 | 0.0 | 0.0 | 0.00 | 0.00 | 0.00 | 97 | 1023.0 |
| 20260506123100 | 12 | 0 | 0.0 | 0.0 | 0.00 | 0.00 | 0.00 | 96 | 1023.0 |
| 20260506121559 | 12 | 0 | 0.0 | 0.0 | 0.00 | 0.00 | 0.00 | 96 | 1022.9 |
| 20260506120100 | 12 | 0 | 0.0 | 0.0 | 0.00 | 0.00 | 0.00 | 96 | 1022.9 |
| 20260506114557 | 12 | 0 | 0.0 | 0.0 | 0.00 | 0.00 | 0.00 | 96 | 1023.0 |
| 20260506113059 | 12 | 0 | 0.0 | 0.0 | 0.00 | 0.00 | 0.00 | 96 | 1022.7 |
| 20260506111603 | 12 | 0 | 0.0 | 0.0 | 0.00 | 0.00 | 0.00 | 95 | 1022.6 |
| 20260506110100 | 12 | 0 | 0.0 | 0.0 | 0.00 | 0.00 | 0.00 | 95 | 1022.5 |
| 20260506104602 | 12 | 0 | 0.0 | 0.0 | 0.00 | 0.00 | 0.00 | 95 | 1022.3 |
| 20260506103129 | 12 | 0 | 0.0 | 0.0 | 0.00 | 0.00 | 0.00 | 95 | 1022.0 |
| 20260506101611 | 12 | 0 | 0.0 | 0.0 | 0.00 | 0.00 | 0.00 | 95 | 1022.0 |
| 20260506100110 | 12 | 0 | 0.0 | 0.0 | 0.00 | 0.00 | 0.00 | 95 | 1021.9 |
| 20260506094607 | 12 | 0 | 0.0 | 0.0 | 0.00 | 0.00 | 0.00 | 95 | 1021.7 |
| 20260506093107 | 12 | 0 | 0.0 | 0.0 | 0.00 | 0.00 | 0.00 | 95 | 1021.5 |
| 20260506090104 | 12 | 0 | 0.0 | 0.0 | 0.00 | 0.00 | 0.00 | 95 | 1021.6 |
| 20260506084617 | 12 | 0 | 0.0 | 0.0 | 0.00 | 0.00 | 0.00 | 94 | 1021.5 |
| 20260506083100 | 13 | 0 | 0.0 | 0.0 | 0.00 | 0.00 | 0.00 | 95 | 1021.2 |
| 20260506081607 | 13 | 0 | 0.0 | 0.0 | 0.00 | 0.00 | 0.00 | 95 | 1021.4 |
| 20260506073101 | 13 | 0 | 0.0 | 0.0 | 0.00 | 0.00 | 0.00 | 94 | 1021.2 |
| 20260506071559 | 14 | 0 | 0.0 | 0.0 | 0.00 | 0.00 | 0.00 | 93 | 1021.0 |
| 20260506061603 | 14 | 0 | 0.0 | 0.0 | 0.00 | 0.00 | 0.00 | 93 | 1020.9 |